Big Delta, AK

10:48 AM AKDT on May 25, 2017 (GMT -0800)
Allen Army Air Field

Weather History for PABI - November, 2011

Change the Weather History Date:

Thursday, November 3, 2011

  Actual Average Record
Temperature  
Mean Temperature -2 °F -  
Max Temperature 15 °F 19 °F 33 °F (2002)
Min Temperature -18 °F 7 °F -22 °F (1999)
Degree Days  
Heating Degree Days 66    
Moisture  
Dew Point -7 °F    
Average Humidity 72    
Maximum Humidity 84    
Minimum Humidity 46    
Precipitation  
Precipitation 0.02 in - - ()
Sea Level Pressure  
Sea Level Pressure 30.01 in    
Wind  
Wind Speed 11 mph (ESE)    
Max Wind Speed 33 mph    
Max Gust Speed 45 mph    
Visibility 9 miles    
Events      
Averages and records for this station are not official NWS values.
T = Trace of Precipitation, MM = Missing Value Source: NWS Daily Summary

Daily Weather History Graph

Daily Weather History Graph

Search for Another Location

Airport or City:

Trip Planner

Search our weather history database for the weather conditions in past years. The results will help you decide how hot, cold, wet, or windy it might be!

Date:

Astronomy

Nov. 03, 2011 Rise Set
Actual Time 9:31 AM AKDT 5:20 PM AKDT
Civil Twilight 8:37 AM AKDT 6:14 PM AKDT
Nautical Twilight 7:40 AM AKDT 7:11 PM AKDT
Astronomical Twilight 6:45 AM AKDT 8:05 PM AKDT
Moon 3:48 PM AKDT (11/3) 12:36 AM AKDT (11/3)
Length of Visible Light 9h 36m
Length of Day
7h 48m
First Quarter, 61% of the Moon is Illuminated
Nov 3
First Quarter
Nov 10
Full
Nov 18
Last Quarter
Nov 24
New
Dec 2
First Quarter

Hourly Weather History & Observations

Time (AKDT) Temp. Windchill Dew Point Humidity Pressure Visibility Wind Dir Wind Speed Gust Speed Precip Events Conditions
12:53 AM -14.1 °F - -18.9 °F 79% 30.51 in 10.0 mi Calm Calm - N/A   Partly Cloudy
1:04 AM -11.2 °F - -16.6 °F 77% 30.32 in 10.0 mi Calm Calm - N/A   Mostly Cloudy
1:32 AM -14.8 °F -27.2 °F -20.2 °F 77% 30.30 in 1.8 mi SE 4.6 mph - N/A   Haze
1:43 AM -16.6 °F -32.9 °F -20.2 °F 84% 30.29 in 4.0 mi ESE 6.9 mph - N/A   Haze
1:53 AM -11.0 °F -24.6 °F -15.0 °F 83% 30.46 in 10.0 mi ESE 5.8 mph - N/A   Scattered Clouds
2:53 AM -9.0 °F -18.2 °F -14.1 °F 79% 30.43 in 10.0 mi ESE 3.5 mph - N/A   Clear
3:53 AM -9.9 °F - -14.1 °F 82% 30.39 in 10.0 mi Calm Calm - N/A   Clear
4:53 AM -14.1 °F -23.9 °F -18.9 °F 79% 30.37 in 10.0 mi East 3.5 mph - N/A   Clear
5:53 AM -16.1 °F - -22.0 °F 74% 30.35 in 10.0 mi Calm Calm - N/A   Clear
6:53 AM -18.9 °F - -25.1 °F 74% 30.32 in 10.0 mi Calm Calm - N/A   Clear
7:53 AM -11.9 °F -25.7 °F -16.1 °F 82% 30.27 in 10.0 mi East 5.8 mph - N/A   Clear
8:53 AM 7.0 °F -14.9 °F 1.9 °F 80% 30.16 in 10.0 mi ESE 25.3 mph 36.8 mph 0.00 in   Partly Cloudy
9:53 AM 6.1 °F -16.5 °F 1.0 °F 80% 30.13 in 10.0 mi ESE 26.5 mph 35.7 mph N/A   Partly Cloudy
10:53 AM 7.0 °F -15.3 °F -0.0 °F 73% 30.08 in 10.0 mi ESE 26.5 mph 34.5 mph N/A   Scattered Clouds
11:53 AM 7.0 °F -15.3 °F -0.0 °F 73% 30.04 in 10.0 mi ESE 26.5 mph 40.3 mph 0.00 in   Mostly Cloudy
12:53 PM 8.1 °F -15.9 °F -0.0 °F 70% 29.97 in 10.0 mi ESE 33.4 mph 44.9 mph N/A   Mostly Cloudy
1:53 PM 9.0 °F -14.3 °F -0.0 °F 67% 29.89 in 10.0 mi ESE 32.2 mph 44.9 mph N/A   Mostly Cloudy
2:53 PM 9.0 °F -14.6 °F -0.0 °F 67% 29.83 in 10.0 mi ESE 33.4 mph 42.6 mph N/A   Mostly Cloudy
3:53 PM 10.0 °F -12.2 °F -0.0 °F 64% 29.78 in 10.0 mi ESE 29.9 mph 39.1 mph N/A   Overcast
4:53 PM 10.9 °F -11.3 °F -0.0 °F 61% 29.71 in 9.0 mi ESE 31.1 mph 39.1 mph N/A   Overcast
5:53 PM 10.9 °F -11.0 °F 1.0 °F 64% 29.68 in 9.0 mi East 29.9 mph 41.4 mph N/A   Overcast
6:53 PM 12.0 °F -7.7 °F -5.1 °F 46% 29.65 in 10.0 mi ESE 24.2 mph 32.2 mph N/A   Overcast
7:53 PM 15.1 °F -2.9 °F 3.9 °F 61% 29.58 in 10.0 mi East 21.9 mph 27.6 mph 0.02 in   Overcast
8:53 PM 14.0 °F -5.5 °F 3.0 °F 62% 29.52 in 10.0 mi East 25.3 mph 33.4 mph N/A   Overcast
9:53 PM 14.0 °F -4.7 °F 5.0 °F 67% 29.48 in 10.0 mi East 23.0 mph 33.4 mph N/A   Overcast
10:53 PM 14.0 °F -4.3 °F 5.0 °F 67% 29.45 in 10.0 mi East 21.9 mph 31.1 mph N/A   Overcast
11:53 PM 14.0 °F -5.1 °F 5.0 °F 67% 29.44 in 10.0 mi East 24.2 mph 32.2 mph N/A   Mostly Cloudy